Location: Christchurch
(43.5330°S, 172.6330°E)
Time: 10:11:45
(UTC+12:00)

IRAS Rocket - Pass Details

Date: 24 January 2019
Orbit: 847 x 878 km, 100.0° (Epoch: 18 April)

Event Time Altitude Azimuth Distance (km) Brightness Sun altitude
Rises 23:29:38 0° 164° (SSE) 3,492 8.0 -20.3°
Reaches altitude 10° 23:32:03 10° 163° (SSE) 2,543 7.2 -20.6°
Maximum altitude 23:37:43 84° 74° (ENE) 880 4.2 -21.1°
Enters shadow 23:40:22 33° 348° (NNW) 1,420 5.0 -21.4°
